contact:dominique.lefevre@mio.osupytheas.fr, maurice.libes@osupytheas.fr, didier.mallarino@osupytheas.fr
Project:EMSO http://www.emso-fr.org/EMSO-France
Depth: 2436.0 m
Title:EMSO Ligure Ouest : Data MII capteur CSTAR
DateTime,Latitude,Longitude,Instrument_Serial,Reference_Counts,Signal_Counts,Corrected_Signal_raw_counts,Calculated_Beam_c_inverse_meters,Internal_thermistor_counts
DateTime,Latitude,Longitude,Instrument_Serial,Reference_Counts,Signal_Counts,Corrected_Signal_raw_counts,Calculated_Beam_c_inverse_meters,Internal_thermistor_counts
2019-07-10T00:02:24,42.805,6.029,CST-1368DR,8721,12200,15480,0.035,551
2019-07-10T00:05:26,42.805,6.029,CST-1368DR,8721,12196,15475,0.036,551
2019-07-10T00:08:27,42.805,6.029,CST-1368DR,8721,12199,15479,0.035,551
2019-07-10T00:11:28,42.805,6.029,CST-1368DR,8721,12199,15479,0.035,551
2019-07-10T00:14:30,42.805,6.029,CST-1368DR,8721,12194,15473,0.037,551
2019-07-10T00:17:31,42.805,6.029,CST-1368DR,8721,12193,15471,0.037,551
2019-07-10T00:20:33,42.805,6.029,CST-1368DR,8721,12199,15479,0.035,550
2019-07-10T00:23:34,42.805,6.029,CST-1368DR,8721,12197,15476,0.036,550
2019-07-10T00:26:35,42.805,6.029,CST-1368DR,8721,12198,15478,0.036,551
2019-07-10T00:29:37,42.805,6.029,CST-1368DR,8721,12195,15474,0.037,551
2019-07-10T00:32:38,42.805,6.029,CST-1368DR,8721,12198,15477,0.036,551
2019-07-10T00:35:40,42.805,6.029,CST-1368DR,8721,12195,15473,0.037,550
2019-07-10T00:38:41,42.805,6.029,CST-1368DR,8721,12193,15471,0.037,551
2019-07-10T00:41:43,42.805,6.029,CST-1368DR,8720,12199,15480,0.035,551
2019-07-10T00:44:44,42.805,6.029,CST-1368DR,8721,12198,15478,0.036,551
2019-07-10T00:47:45,42.805,6.029,CST-1368DR,8720,12196,15476,0.036,551
2019-07-10T00:50:47,42.805,6.029,CST-1368DR,8721,12198,15477,0.036,551
2019-07-10T00:53:48,42.805,6.029,CST-1368DR,8720,12195,15476,0.036,551
2019-07-10T00:56:50,42.805,6.029,CST-1368DR,8720,12192,15471,0.037,551
2019-07-10T00:59:51,42.805,6.029,CST-1368DR,8720,12197,15478,0.036,551
2019-07-10T01:02:52,42.805,6.029,CST-1368DR,8720,12198,15479,0.035,551
2019-07-10T01:05:54,42.805,6.029,CST-1368DR,8720,12198,15479,0.035,551
2019-07-10T01:08:55,42.805,6.029,CST-1368DR,8720,12194,15474,0.037,551
2019-07-10T01:11:57,42.805,6.029,CST-1368DR,8720,12199,15481,0.035,551
2019-07-10T01:14:58,42.805,6.029,CST-1368DR,8720,12198,15479,0.035,551
2019-07-10T01:17:59,42.805,6.029,CST-1368DR,8720,12199,15480,0.035,551
2019-07-10T01:21:01,42.805,6.029,CST-1368DR,8720,12198,15479,0.035,551
2019-07-10T01:24:02,42.805,6.029,CST-1368DR,8720,12198,15479,0.035,551
2019-07-10T01:27:04,42.805,6.029,CST-1368DR,8720,12197,15478,0.036,551
2019-07-10T01:30:05,42.805,6.029,CST-1368DR,8720,12199,15480,0.035,551
2019-07-10T01:33:06,42.805,6.029,CST-1368DR,8720,12196,15476,0.036,551
2019-07-10T01:36:08,42.805,6.029,CST-1368DR,8720,12198,15479,0.035,550
2019-07-10T01:39:09,42.805,6.029,CST-1368DR,8720,12195,15475,0.036,551
2019-07-10T01:42:11,42.805,6.029,CST-1368DR,8720,12199,15481,0.035,551
2019-07-10T01:45:12,42.805,6.029,CST-1368DR,8720,12199,15481,0.035,551
2019-07-10T01:48:14,42.805,6.029,CST-1368DR,8720,12196,15477,0.036,551
2019-07-10T01:51:15,42.805,6.029,CST-1368DR,8720,12197,15478,0.036,550
2019-07-10T01:54:16,42.805,6.029,CST-1368DR,8720,12199,15480,0.035,550
2019-07-10T01:57:18,42.805,6.029,CST-1368DR,8720,12195,15475,0.036,551
2019-07-10T02:00:19,42.805,6.029,CST-1368DR,8720,12195,15475,0.036,551
2019-07-10T02:03:21,42.805,6.029,CST-1368DR,8720,12195,15476,0.036,551
2019-07-10T02:06:22,42.805,6.029,CST-1368DR,8720,12198,15479,0.035,551
2019-07-10T02:09:23,42.805,6.029,CST-1368DR,8720,12197,15478,0.036,551
2019-07-10T02:12:25,42.805,6.029,CST-1368DR,8720,12193,15473,0.037,551
2019-07-10T02:15:26,42.805,6.029,CST-1368DR,8720,12197,15478,0.036,551
2019-07-10T02:18:28,42.805,6.029,CST-1368DR,8720,12186,15464,0.039,551
2019-07-10T02:21:29,42.805,6.029,CST-1368DR,8720,12198,15480,0.035,551
2019-07-10T02:24:30,42.805,6.029,CST-1368DR,8720,12196,15477,0.036,551
2019-07-10T02:27:32,42.805,6.029,CST-1368DR,8720,12199,15481,0.035,551
2019-07-10T02:30:33,42.805,6.029,CST-1368DR,8720,12199,15481,0.035,551
2019-07-10T02:33:35,42.805,6.029,CST-1368DR,8720,12197,15478,0.036,551
2019-07-10T02:36:36,42.805,6.029,CST-1368DR,8720,12198,15479,0.035,551
2019-07-10T02:39:37,42.805,6.029,CST-1368DR,8720,12197,15478,0.036,551
2019-07-10T02:42:39,42.805,6.029,CST-1368DR,8720,12195,15475,0.036,551
2019-07-10T02:45:40,42.805,6.029,CST-1368DR,8720,12198,15479,0.035,551
2019-07-10T02:48:42,42.805,6.029,CST-1368DR,8720,12198,15479,0.035,551
2019-07-10T02:51:43,42.805,6.029,CST-1368DR,8719,12196,15478,0.036,551
2019-07-10T02:54:45,42.805,6.029,CST-1368DR,8719,12196,15479,0.035,551
2019-07-10T02:57:46,42.805,6.029,CST-1368DR,8719,12198,15480,0.035,551
2019-07-10T03:00:47,42.805,6.029,CST-1368DR,8719,12198,15481,0.035,551
2019-07-10T03:03:49,42.805,6.029,CST-1368DR,8719,12195,15476,0.036,551
2019-07-10T03:06:50,42.805,6.029,CST-1368DR,8719,12194,15475,0.036,551
2019-07-10T03:09:52,42.805,6.029,CST-1368DR,8719,12196,15478,0.036,551
2019-07-10T03:12:53,42.805,6.029,CST-1368DR,8719,12194,15476,0.036,551
2019-07-10T03:15:54,42.805,6.029,CST-1368DR,8719,12196,15478,0.036,551
2019-07-10T03:18:56,42.805,6.029,CST-1368DR,8719,12195,15477,0.036,550
2019-07-10T03:21:57,42.805,6.029,CST-1368DR,8719,12196,15478,0.036,551
2019-07-10T03:24:59,42.805,6.029,CST-1368DR,8719,12198,15481,0.035,551
2019-07-10T03:28:00,42.805,6.029,CST-1368DR,8719,12195,15477,0.036,551
2019-07-10T03:31:01,42.805,6.029,CST-1368DR,8719,12194,15476,0.036,551
2019-07-10T03:34:03,42.805,6.029,CST-1368DR,8719,12198,15481,0.035,551
2019-07-10T03:37:04,42.805,6.029,CST-1368DR,8719,12197,15480,0.035,551
2019-07-10T03:40:06,42.805,6.029,CST-1368DR,8719,12197,15479,0.035,551
2019-07-10T03:43:07,42.805,6.029,CST-1368DR,8719,12197,15480,0.035,550
2019-07-10T03:46:08,42.805,6.029,CST-1368DR,8719,12197,15480,0.035,551
2019-07-10T03:49:10,42.805,6.029,CST-1368DR,8719,12199,15483,0.034,551
2019-07-10T03:52:11,42.805,6.029,CST-1368DR,8719,12199,15482,0.034,551
2019-07-10T03:55:13,42.805,6.029,CST-1368DR,8719,12187,15467,0.038,551
2019-07-10T03:58:14,42.805,6.029,CST-1368DR,8719,12194,15476,0.036,551
2019-07-10T04:01:16,42.805,6.029,CST-1368DR,8719,12199,15482,0.034,551
2019-07-10T04:04:17,42.805,6.029,CST-1368DR,8719,12196,15478,0.036,551
2019-07-10T04:07:18,42.805,6.029,CST-1368DR,8719,12199,15482,0.034,551
2019-07-10T04:10:20,42.805,6.029,CST-1368DR,8719,12196,15479,0.035,551
2019-07-10T04:13:21,42.805,6.029,CST-1368DR,8719,12195,15476,0.036,551
2019-07-10T04:16:23,42.805,6.029,CST-1368DR,8719,12197,15480,0.035,550
2019-07-10T04:19:24,42.805,6.029,CST-1368DR,8719,12198,15480,0.035,551
2019-07-10T04:22:25,42.805,6.029,CST-1368DR,8719,12197,15480,0.035,551
2019-07-10T04:25:27,42.805,6.029,CST-1368DR,8719,12198,15480,0.035,551
2019-07-10T04:28:28,42.805,6.029,CST-1368DR,8719,12192,15473,0.037,551
2019-07-10T04:31:30,42.805,6.029,CST-1368DR,8718,12198,15482,0.034,551
2019-07-10T04:34:31,42.805,6.029,CST-1368DR,8718,12196,15479,0.035,551
2019-07-10T04:37:32,42.805,6.029,CST-1368DR,8718,12196,15479,0.035,551
2019-07-10T04:40:34,42.805,6.029,CST-1368DR,8718,12198,15483,0.034,551
2019-07-10T04:43:35,42.805,6.029,CST-1368DR,8718,12193,15476,0.036,550
2019-07-10T04:46:37,42.805,6.029,CST-1368DR,8718,12194,15477,0.036,551
2019-07-10T04:49:38,42.805,6.029,CST-1368DR,8718,12197,15482,0.034,551
2019-07-10T04:52:40,42.805,6.029,CST-1368DR,8718,12197,15481,0.035,551
2019-07-10T04:55:41,42.805,6.029,CST-1368DR,8718,12197,15482,0.034,550
2019-07-10T04:58:42,42.805,6.029,CST-1368DR,8718,12197,15481,0.035,551
2019-07-10T05:01:44,42.805,6.029,CST-1368DR,8718,12196,15480,0.035,551
2019-07-10T05:04:45,42.805,6.029,CST-1368DR,8718,12198,15482,0.034,551
2019-07-10T05:07:47,42.805,6.029,CST-1368DR,8718,12198,15482,0.034,551
2019-07-10T05:10:48,42.805,6.029,CST-1368DR,8718,12197,15481,0.035,551
2019-07-10T05:13:49,42.805,6.029,CST-1368DR,8718,12197,15481,0.035,551
2019-07-10T05:16:51,42.805,6.029,CST-1368DR,8718,12195,15478,0.036,551
2019-07-10T05:19:52,42.805,6.029,CST-1368DR,8718,12198,15483,0.034,551
2019-07-10T05:22:54,42.805,6.029,CST-1368DR,8718,12196,15480,0.035,551
2019-07-10T05:25:55,42.805,6.029,CST-1368DR,8718,12192,15475,0.036,551
2019-07-10T05:28:56,42.805,6.029,CST-1368DR,8718,12193,15476,0.036,551
2019-07-10T05:31:58,42.805,6.029,CST-1368DR,8718,12196,15480,0.035,551
2019-07-10T05:34:59,42.805,6.029,CST-1368DR,8718,12188,15469,0.038,551
2019-07-10T05:38:01,42.805,6.029,CST-1368DR,8718,12196,15480,0.035,551
2019-07-10T05:41:02,42.805,6.029,CST-1368DR,8718,12193,15476,0.036,551
2019-07-10T05:44:03,42.805,6.029,CST-1368DR,8718,12196,15480,0.035,551
2019-07-10T05:47:05,42.805,6.029,CST-1368DR,8718,12193,15476,0.036,551
2019-07-10T05:50:06,42.805,6.029,CST-1368DR,8718,12193,15476,0.036,550
2019-07-10T05:53:08,42.805,6.029,CST-1368DR,8718,12195,15478,0.036,551
2019-07-10T05:56:09,42.805,6.029,CST-1368DR,8717,12194,15478,0.036,551
2019-07-10T05:59:11,42.805,6.029,CST-1368DR,8718,12195,15478,0.036,551
2019-07-10T06:02:12,42.805,6.029,CST-1368DR,8718,12196,15479,0.035,551
2019-07-10T06:05:13,42.805,6.029,CST-1368DR,8718,12193,15476,0.036,551
2019-07-10T06:08:15,42.805,6.029,CST-1368DR,8718,12191,15474,0.037,550
2019-07-10T06:11:16,42.805,6.029,CST-1368DR,8718,12192,15475,0.036,551
2019-07-10T06:14:18,42.805,6.029,CST-1368DR,8718,12196,15479,0.035,550
2019-07-10T06:17:19,42.805,6.029,CST-1368DR,8717,12164,15441,0.045,551
2019-07-10T06:20:20,42.805,6.029,CST-1368DR,8717,12182,15464,0.039,551
2019-07-10T06:23:22,42.805,6.029,CST-1368DR,8717,12178,15458,0.041,551
2019-07-10T06:26:23,42.805,6.029,CST-1368DR,8717,12189,15472,0.037,550
2019-07-10T06:29:25,42.805,6.029,CST-1368DR,8717,12192,15476,0.036,551
2019-07-10T06:32:26,42.805,6.029,CST-1368DR,8717,12195,15480,0.035,551
2019-07-10T06:35:27,42.805,6.029,CST-1368DR,8717,12195,15480,0.035,551
2019-07-10T06:38:29,42.805,6.029,CST-1368DR,8717,12193,15477,0.036,551
2019-07-10T06:41:30,42.805,6.029,CST-1368DR,8717,12197,15483,0.034,551
2019-07-10T06:44:32,42.805,6.029,CST-1368DR,8717,12191,15476,0.036,551
2019-07-10T06:47:33,42.805,6.029,CST-1368DR,8717,12193,15478,0.036,551
2019-07-10T06:50:34,42.805,6.029,CST-1368DR,8717,12195,15481,0.035,551
2019-07-10T06:53:36,42.805,6.029,CST-1368DR,8717,12193,15478,0.036,550
2019-07-10T06:56:37,42.805,6.029,CST-1368DR,8717,12194,15479,0.035,551
2019-07-10T06:59:39,42.805,6.029,CST-1368DR,8717,12196,15481,0.035,550
2019-07-10T07:02:40,42.805,6.029,CST-1368DR,8717,12196,15481,0.035,550
2019-07-10T07:05:42,42.805,6.029,CST-1368DR,8717,12193,15478,0.036,551
2019-07-10T07:08:43,42.805,6.029,CST-1368DR,8717,12192,15477,0.036,551
2019-07-10T07:11:44,42.805,6.029,CST-1368DR,8717,12192,15477,0.036,551
2019-07-10T07:14:46,42.805,6.029,CST-1368DR,8717,12193,15478,0.036,551
2019-07-10T07:17:47,42.805,6.029,CST-1368DR,8717,12193,15477,0.036,550
2019-07-10T07:20:49,42.805,6.029,CST-1368DR,8717,12191,15475,0.036,550
2019-07-10T07:23:50,42.805,6.029,CST-1368DR,8717,12194,15479,0.035,551
2019-07-10T07:26:51,42.805,6.029,CST-1368DR,8717,12195,15481,0.035,551
2019-07-10T07:29:53,42.805,6.029,CST-1368DR,8717,12192,15476,0.036,551
2019-07-10T07:32:54,42.805,6.029,CST-1368DR,8717,12192,15477,0.036,550
2019-07-10T07:35:56,42.805,6.029,CST-1368DR,8717,12189,15472,0.037,551
2019-07-10T07:38:57,42.805,6.029,CST-1368DR,8717,12194,15479,0.035,550
2019-07-10T07:41:58,42.805,6.029,CST-1368DR,8717,12194,15479,0.035,551
2019-07-10T07:45:00,42.805,6.029,CST-1368DR,8717,12194,15478,0.036,551
2019-07-10T07:48:01,42.805,6.029,CST-1368DR,8716,12189,15474,0.037,551
2019-07-10T07:51:03,42.805,6.029,CST-1368DR,8716,12193,15479,0.035,551
2019-07-10T07:54:04,42.805,6.029,CST-1368DR,8716,12196,15483,0.034,551
2019-07-10T07:57:06,42.805,6.029,CST-1368DR,8716,12193,15479,0.035,551
2019-07-10T08:00:07,42.805,6.029,CST-1368DR,8716,12189,15474,0.037,551
2019-07-10T08:03:08,42.805,6.029,CST-1368DR,8716,12192,15478,0.036,551
2019-07-10T08:06:10,42.805,6.029,CST-1368DR,8716,12194,15481,0.035,551
2019-07-10T08:09:11,42.805,6.029,CST-1368DR,8716,12191,15476,0.036,551
2019-07-10T08:12:13,42.805,6.029,CST-1368DR,8716,12189,15474,0.037,551
2019-07-10T08:15:14,42.805,6.029,CST-1368DR,8716,12192,15478,0.036,551
2019-07-10T08:18:15,42.805,6.029,CST-1368DR,8716,12187,15472,0.037,551
2019-07-10T08:21:17,42.805,6.029,CST-1368DR,8716,12192,15479,0.035,551
2019-07-10T08:24:18,42.805,6.029,CST-1368DR,8716,12192,15478,0.036,551
2019-07-10T08:27:20,42.805,6.029,CST-1368DR,8716,12194,15480,0.035,551
2019-07-10T08:30:21,42.805,6.029,CST-1368DR,8716,12195,15482,0.034,551
2019-07-10T08:33:22,42.805,6.029,CST-1368DR,8716,12193,15479,0.035,551
2019-07-10T08:36:24,42.805,6.029,CST-1368DR,8716,12195,15481,0.035,551
2019-07-10T08:39:25,42.805,6.029,CST-1368DR,8716,12192,15478,0.036,551
2019-07-10T08:42:27,42.805,6.029,CST-1368DR,8716,12194,15480,0.035,551
2019-07-10T08:45:28,42.805,6.029,CST-1368DR,8716,12195,15481,0.035,551
2019-07-10T08:48:29,42.805,6.029,CST-1368DR,8716,12184,15467,0.038,551
2019-07-10T08:51:31,42.805,6.029,CST-1368DR,8716,12195,15482,0.034,551
2019-07-10T08:54:32,42.805,6.029,CST-1368DR,8716,12193,15479,0.035,551
2019-07-10T08:57:34,42.805,6.029,CST-1368DR,8716,12191,15477,0.036,551
2019-07-10T09:00:35,42.805,6.029,CST-1368DR,8716,12193,15479,0.035,551
2019-07-10T09:03:37,42.805,6.029,CST-1368DR,8716,12195,15481,0.035,551
2019-07-10T09:06:38,42.805,6.029,CST-1368DR,8716,12195,15482,0.034,551
2019-07-10T09:09:39,42.805,6.029,CST-1368DR,8716,12195,15481,0.035,551
2019-07-10T09:12:41,42.805,6.029,CST-1368DR,8716,12195,15481,0.035,550
2019-07-10T09:15:42,42.805,6.029,CST-1368DR,8716,12193,15479,0.035,551
2019-07-10T09:18:44,42.805,6.029,CST-1368DR,8716,12193,15479,0.035,550
2019-07-10T09:21:45,42.805,6.029,CST-1368DR,8716,12190,15476,0.036,551
2019-07-10T09:24:46,42.805,6.029,CST-1368DR,8716,12185,15469,0.038,551
2019-07-10T09:27:48,42.805,6.029,CST-1368DR,8716,12192,15478,0.036,551
2019-07-10T09:30:49,42.805,6.029,CST-1368DR,8716,12192,15478,0.036,551
2019-07-10T09:33:51,42.805,6.029,CST-1368DR,8716,12189,15474,0.037,551
2019-07-10T09:36:52,42.805,6.029,CST-1368DR,8715,12192,15480,0.035,551
2019-07-10T09:39:53,42.805,6.029,CST-1368DR,8715,12189,15476,0.036,551
2019-07-10T09:42:55,42.805,6.029,CST-1368DR,8716,12194,15481,0.035,550
2019-07-10T09:45:56,42.805,6.029,CST-1368DR,8715,12175,15459,0.040,551
2019-07-10T09:48:58,42.805,6.029,CST-1368DR,8716,12192,15478,0.036,551
2019-07-10T09:51:59,42.805,6.029,CST-1368DR,8716,12194,15481,0.035,551
2019-07-10T09:55:01,42.805,6.029,CST-1368DR,8716,12184,15468,0.038,551
2019-07-10T09:58:02,42.805,6.029,CST-1368DR,8716,12193,15479,0.035,550
2019-07-10T10:01:03,42.805,6.029,CST-1368DR,8715,12190,15478,0.036,551
2019-07-10T10:04:05,42.805,6.029,CST-1368DR,8715,12193,15481,0.035,551
2019-07-10T10:07:06,42.805,6.029,CST-1368DR,8715,12193,15481,0.035,551
2019-07-10T10:10:08,42.805,6.029,CST-1368DR,8715,12192,15480,0.035,551
2019-07-10T10:13:09,42.805,6.029,CST-1368DR,8715,12194,15482,0.034,551
2019-07-10T10:16:10,42.805,6.029,CST-1368DR,8715,12194,15482,0.034,550
2019-07-10T10:19:12,42.805,6.029,CST-1368DR,8715,12193,15481,0.035,551
2019-07-10T10:22:13,42.805,6.029,CST-1368DR,8715,12194,15482,0.034,551
2019-07-10T10:25:15,42.805,6.029,CST-1368DR,8715,12192,15479,0.035,551
2019-07-10T10:28:16,42.805,6.029,CST-1368DR,8715,12193,15481,0.035,551
2019-07-10T10:31:17,42.805,6.029,CST-1368DR,8715,12192,15479,0.035,551
2019-07-10T10:34:19,42.805,6.029,CST-1368DR,8715,12188,15474,0.037,551
2019-07-10T10:37:20,42.805,6.029,CST-1368DR,8715,12192,15480,0.035,551
2019-07-10T10:40:22,42.805,6.029,CST-1368DR,8715,12192,15480,0.035,551
2019-07-10T10:43:23,42.805,6.029,CST-1368DR,8715,12192,15479,0.035,551
2019-07-10T10:46:24,42.805,6.029,CST-1368DR,8715,12192,15480,0.035,551
2019-07-10T10:49:26,42.805,6.029,CST-1368DR,8715,12192,15480,0.035,551
2019-07-10T10:52:27,42.805,6.029,CST-1368DR,8715,12192,15480,0.035,551
2019-07-10T10:55:29,42.805,6.029,CST-1368DR,8715,12191,15479,0.035,551
2019-07-10T10:58:30,42.805,6.029,CST-1368DR,8715,12191,15478,0.036,551
2019-07-10T11:01:32,42.805,6.029,CST-1368DR,8715,12192,15479,0.035,551
2019-07-10T11:04:33,42.805,6.029,CST-1368DR,8715,12193,15481,0.035,551
2019-07-10T11:07:34,42.805,6.029,CST-1368DR,8715,12192,15479,0.035,551
2019-07-10T11:10:36,42.805,6.029,CST-1368DR,8715,12176,15460,0.040,551
2019-07-10T11:13:37,42.805,6.029,CST-1368DR,8715,12177,15460,0.040,551
2019-07-10T11:16:39,42.805,6.029,CST-1368DR,8715,12183,15469,0.038,551
2019-07-10T11:19:40,42.805,6.029,CST-1368DR,8715,12186,15473,0.037,551
2019-07-10T11:22:41,42.805,6.029,CST-1368DR,8715,12186,15472,0.037,551
2019-07-10T11:25:43,42.805,6.029,CST-1368DR,8715,12189,15475,0.036,550
2019-07-10T11:28:44,42.805,6.029,CST-1368DR,8715,12191,15478,0.036,551
2019-07-10T11:31:46,42.805,6.029,CST-1368DR,8715,12191,15479,0.035,551
2019-07-10T11:34:47,42.805,6.029,CST-1368DR,8715,12191,15479,0.035,551
2019-07-10T11:37:48,42.805,6.029,CST-1368DR,8715,12193,15480,0.035,551
2019-07-10T11:40:50,42.805,6.029,CST-1368DR,8715,12192,15480,0.035,551
2019-07-10T11:43:51,42.805,6.029,CST-1368DR,8715,12192,15480,0.035,551
2019-07-10T11:46:53,42.805,6.029,CST-1368DR,8715,12193,15481,0.035,550
2019-07-10T11:49:54,42.805,6.029,CST-1368DR,8715,12191,15478,0.036,551
2019-07-10T11:52:55,42.805,6.029,CST-1368DR,8715,12191,15478,0.036,551
2019-07-10T11:55:57,42.805,6.029,CST-1368DR,8715,12192,15479,0.035,551
2019-07-10T11:58:58,42.805,6.029,CST-1368DR,8715,12189,15476,0.036,551
2019-07-10T12:02:00,42.805,6.029,CST-1368DR,8714,12185,15473,0.037,551
2019-07-10T12:05:01,42.805,6.029,CST-1368DR,8714,12191,15481,0.035,551
2019-07-10T12:08:03,42.805,6.029,CST-1368DR,8715,12191,15479,0.035,551
2019-07-10T12:11:04,42.805,6.029,CST-1368DR,8714,12191,15481,0.035,551
2019-07-10T12:14:05,42.805,6.029,CST-1368DR,8714,12186,15474,0.037,551
2019-07-10T12:17:07,42.805,6.029,CST-1368DR,8714,12189,15478,0.036,551
2019-07-10T12:20:08,42.805,6.029,CST-1368DR,8714,12190,15479,0.035,551
2019-07-10T12:23:10,42.805,6.029,CST-1368DR,8714,12191,15480,0.035,551
2019-07-10T12:26:11,42.805,6.029,CST-1368DR,8714,12190,15479,0.035,550
2019-07-10T12:29:12,42.805,6.029,CST-1368DR,8714,12191,15480,0.035,551
2019-07-10T12:32:14,42.805,6.029,CST-1368DR,8714,12187,15475,0.036,551
2019-07-10T12:35:15,42.805,6.029,CST-1368DR,8714,12189,15477,0.036,551
2019-07-10T12:38:17,42.805,6.029,CST-1368DR,8714,12190,15479,0.035,551
2019-07-10T12:41:18,42.805,6.029,CST-1368DR,8714,12185,15472,0.037,551
2019-07-10T12:44:19,42.805,6.029,CST-1368DR,8714,12191,15480,0.035,550
2019-07-10T12:47:21,42.805,6.029,CST-1368DR,8714,12190,15479,0.035,551
2019-07-10T12:50:22,42.805,6.029,CST-1368DR,8714,12188,15476,0.036,551
2019-07-10T12:53:24,42.805,6.029,CST-1368DR,8714,12188,15477,0.036,551
2019-07-10T12:56:25,42.805,6.029,CST-1368DR,8714,12186,15474,0.037,551
2019-07-10T12:59:26,42.805,6.029,CST-1368DR,8714,12187,15475,0.036,551
2019-07-10T13:02:28,42.805,6.029,CST-1368DR,8714,12189,15478,0.036,551
2019-07-10T13:05:29,42.805,6.029,CST-1368DR,8714,12188,15476,0.036,551
2019-07-10T13:08:31,42.805,6.029,CST-1368DR,8714,12190,15479,0.035,551
2019-07-10T13:11:32,42.805,6.029,CST-1368DR,8714,12188,15476,0.036,551
2019-07-10T13:14:34,42.805,6.029,CST-1368DR,8714,12190,15479,0.035,551
2019-07-10T13:17:35,42.805,6.029,CST-1368DR,8714,12190,15479,0.035,551
2019-07-10T13:20:36,42.805,6.029,CST-1368DR,8714,12191,15480,0.035,551
2019-07-10T13:23:38,42.805,6.029,CST-1368DR,8714,12191,15480,0.035,551
2019-07-10T13:26:39,42.805,6.029,CST-1368DR,8714,12192,15481,0.035,551
2019-07-10T13:29:41,42.805,6.029,CST-1368DR,8714,12191,15480,0.035,551
2019-07-10T13:32:42,42.805,6.029,CST-1368DR,8714,12188,15476,0.036,551
2019-07-10T13:35:43,42.805,6.029,CST-1368DR,8714,12192,15481,0.035,551
2019-07-10T13:38:45,42.805,6.029,CST-1368DR,8714,12183,15470,0.038,550
2019-07-10T13:41:46,42.805,6.029,CST-1368DR,8714,12191,15480,0.035,551
2019-07-10T13:44:48,42.805,6.029,CST-1368DR,8713,12189,15479,0.035,551
2019-07-10T13:47:49,42.805,6.029,CST-1368DR,8713,12190,15481,0.035,551
2019-07-10T13:50:50,42.805,6.029,CST-1368DR,8713,12189,15479,0.035,550
2019-07-10T13:53:52,42.805,6.029,CST-1368DR,8713,12187,15477,0.036,551
2019-07-10T13:56:53,42.805,6.029,CST-1368DR,8713,12186,15475,0.036,551
2019-07-10T13:59:55,42.805,6.029,CST-1368DR,8713,12191,15482,0.034,551
2019-07-10T14:02:56,42.805,6.029,CST-1368DR,8713,12191,15482,0.034,551
2019-07-10T14:05:57,42.805,6.029,CST-1368DR,8713,12190,15481,0.035,551
2019-07-10T14:08:59,42.805,6.029,CST-1368DR,8713,12187,15477,0.036,551
2019-07-10T14:12:00,42.805,6.029,CST-1368DR,8713,12191,15481,0.035,551
2019-07-10T14:15:02,42.805,6.029,CST-1368DR,8713,12189,15479,0.035,550
2019-07-10T14:18:03,42.805,6.029,CST-1368DR,8713,12191,15481,0.035,551
2019-07-10T14:21:05,42.805,6.029,CST-1368DR,8713,12190,15481,0.035,551
2019-07-10T14:24:06,42.805,6.029,CST-1368DR,8713,12190,15481,0.035,551
2019-07-10T14:27:07,42.805,6.029,CST-1368DR,8713,12189,15479,0.035,551
2019-07-10T14:30:09,42.805,6.029,CST-1368DR,8713,12190,15480,0.035,550
2019-07-10T14:33:10,42.805,6.029,CST-1368DR,8713,12191,15481,0.035,551
2019-07-10T14:36:12,42.805,6.029,CST-1368DR,8713,12190,15481,0.035,551
2019-07-10T14:39:13,42.805,6.029,CST-1368DR,8713,12191,15481,0.035,551
2019-07-10T14:42:14,42.805,6.029,CST-1368DR,8713,12189,15479,0.035,551
2019-07-10T14:45:16,42.805,6.029,CST-1368DR,8713,12190,15480,0.035,551
2019-07-10T14:48:17,42.805,6.029,CST-1368DR,8713,12189,15479,0.035,551
2019-07-10T14:51:19,42.805,6.029,CST-1368DR,8713,12189,15479,0.035,551
2019-07-10T14:54:20,42.805,6.029,CST-1368DR,8713,12189,15479,0.035,550
2019-07-10T14:57:21,42.805,6.029,CST-1368DR,8713,12190,15480,0.035,551
2019-07-10T15:00:23,42.805,6.029,CST-1368DR,8713,12189,15479,0.035,551
2019-07-10T15:03:24,42.805,6.029,CST-1368DR,8713,12178,15465,0.039,551
2019-07-10T15:06:26,42.805,6.029,CST-1368DR,8713,12189,15479,0.035,550
2019-07-10T15:09:27,42.805,6.029,CST-1368DR,8713,12189,15479,0.035,551
2019-07-10T15:12:28,42.805,6.029,CST-1368DR,8713,12188,15478,0.036,551
2019-07-10T15:15:30,42.805,6.029,CST-1368DR,8713,12189,15479,0.035,550
2019-07-10T15:18:31,42.805,6.029,CST-1368DR,8713,12189,15479,0.035,551
2019-07-10T15:21:33,42.805,6.029,CST-1368DR,8713,12190,15480,0.035,550
2019-07-10T15:24:34,42.805,6.029,CST-1368DR,8713,12190,15481,0.035,551
2019-07-10T15:27:36,42.805,6.029,CST-1368DR,8713,12188,15478,0.036,551
2019-07-10T15:30:37,42.805,6.029,CST-1368DR,8713,12189,15479,0.035,551
2019-07-10T15:33:38,42.805,6.029,CST-1368DR,8713,12189,15479,0.035,551
2019-07-10T15:36:40,42.805,6.029,CST-1368DR,8713,12187,15477,0.036,551
2019-07-10T15:39:41,42.805,6.029,CST-1368DR,8712,12186,15477,0.036,551
2019-07-10T15:42:43,42.805,6.029,CST-1368DR,8713,12188,15478,0.036,551
2019-07-10T15:45:44,42.805,6.029,CST-1368DR,8712,12190,15482,0.034,551
2019-07-10T15:48:45,42.805,6.029,CST-1368DR,8712,12189,15480,0.035,550
2019-07-10T15:51:47,42.805,6.029,CST-1368DR,8713,12189,15480,0.035,551
2019-07-10T15:54:48,42.805,6.029,CST-1368DR,8712,12182,15472,0.037,551
2019-07-10T15:57:50,42.805,6.029,CST-1368DR,8712,12182,15472,0.037,550
2019-07-10T16:00:51,42.805,6.029,CST-1368DR,8712,12188,15480,0.035,551
2019-07-10T16:03:52,42.805,6.029,CST-1368DR,8712,12189,15481,0.035,551
2019-07-10T16:06:54,42.805,6.029,CST-1368DR,8712,12191,15483,0.034,551
2019-07-10T16:09:55,42.805,6.029,CST-1368DR,8712,12189,15481,0.035,550
2019-07-10T16:12:57,42.805,6.029,CST-1368DR,8712,12187,15479,0.035,551
2019-07-10T16:15:58,42.805,6.029,CST-1368DR,8712,12185,15476,0.036,551
2019-07-10T16:19:00,42.805,6.029,CST-1368DR,8712,12188,15480,0.035,551
2019-07-10T16:22:01,42.805,6.029,CST-1368DR,8712,12189,15481,0.035,551
2019-07-10T16:25:02,42.805,6.029,CST-1368DR,8712,12177,15465,0.039,551
2019-07-10T16:28:04,42.805,6.029,CST-1368DR,8712,12189,15481,0.035,550
2019-07-10T16:31:05,42.805,6.029,CST-1368DR,8712,12189,15481,0.035,551
2019-07-10T16:34:07,42.805,6.029,CST-1368DR,8712,12186,15476,0.036,551
2019-07-10T16:37:08,42.805,6.029,CST-1368DR,8712,12189,15481,0.035,551